CYGFM04

Last updated on Thu Jul 03 2025 00:02:22 GMT+0000 (Coordinated Universal Time)

1 41885U 16078B 25183.58513721 .00010903 00000+0 24005-3 0 9995 2 41885 34.9370 5.4250 0007631 121.3710 238.7757 15.43084000474674
UTC large
Height (km)
Speed (km/s)
/
Latitude / Longitude
Inclination (degrees)
Orbital Period (minutes)
Azimuth
Elevation
Range (km)
Doppler Factor

Next 0 passes for location: London (51.5072 / 0.1276)

Sorry there are no passes over London.